Location: Namasale
(1.5000°N, 32.6167°E)
Time: 23:12:19
(UTC+00:00)

Transit 2A - Pass Details

Date: 21 April 2021
Orbit: 602 x 957 km, 66.7° (Epoch: 11 May)

Event Time Altitude Azimuth Distance (km) Brightness Sun altitude
Rises 01:56:52 0° 167° (SSE) 3,440 9.4 -26.9°
Reaches altitude 10° 02:00:43 10° 143° (SE) 2,421 8.8 -25.9°
Maximum altitude 02:03:29 14° 113° (ESE) 2,095 8.9 -25.3°
Drops below altitude 10° 02:06:07 10° 82° (E) 2,295 9.5 -24.6°
Sets 02:09:34 0° 57° (ENE) 3,133 10.4 -23.8°
